• In Österreich
  • Länderverzeichnis
  • Für 7 Tage
  • Wassertemperatur
  • Satellitenkarten
  • Wetterkarte
  • News
  • Widgets
  • user-avatar
    Anmelden

    Stündliche Wetter Brzesko

    Heute, 19 September, Mittwoch

    Zeit Temperatur Niederschläge Wind Luftdruck Luftfeuchtigkeit
    00:00 +17°C° 0 mm 2 m/S 740 mmHg 70%
    01:00 +17°C° 0 mm 2 m/S 740 mmHg 71%
    02:00 +16°C° 0 mm 2 m/S 740 mmHg 71%
    03:00 +16°C° 0 mm 2 m/S 740 mmHg 71%
    04:00 +16°C° 0 mm 2 m/S 740 mmHg 71%
    05:00 +16°C° 0 mm 2 m/S 740 mmHg 68%
    06:00 +17°C° 0 mm 2 m/S 740 mmHg 66%
    07:00 +18°C° 0 mm 2 m/S 740 mmHg 63%
    08:00 +20°C° 0 mm 3 m/S 740 mmHg 55%
    09:00 +22°C° 0 mm 3 m/S 741 mmHg 47%
    10:00 +26°C° 0 mm 3 m/S 741 mmHg 40%
    11:00 +27°C° 0 mm 3 m/S 741 mmHg 38%
    12:00 +27°C° 0 mm 3 m/S 741 mmHg 36%
    13:00 +28°C° 0 mm 3 m/S 741 mmHg 35%
    14:00 +28°C° 0 mm 3 m/S 740 mmHg 37%
    15:00 +27°C° 0 mm 2 m/S 740 mmHg 39%
    16:00 +27°C° 0 mm 2 m/S 740 mmHg 41%
    17:00 +25°C° 0 mm 2 m/S 740 mmHg 47%
    18:00 +23°C° 0 mm 2 m/S 740 mmHg 52%
    19:00 +21°C° 0 mm 1 m/S 740 mmHg 58%
    20:00 +20°C° 0 mm 1 m/S 740 mmHg 60%
    21:00 +19°C° 0 mm 2 m/S 740 mmHg 62%
    22:00 +18°C° 0 mm 2 m/S 741 mmHg 64%
    23:00 +18°C° 0 mm 2 m/S 741 mmHg 66%

    Morgen, 20 September, Donnerstag

    Zeit Temperatur Niederschläge Wind Luftdruck Luftfeuchtigkeit
    00:00 +17°C° 0 mm 2 m/S 741 mmHg 67%
    01:00 +17°C° 0 mm 2 m/S 741 mmHg 68%
    02:00 +17°C° 0 mm 2 m/S 740 mmHg 69%
    03:00 +16°C° 0 mm 2 m/S 740 mmHg 70%
    04:00 +16°C° 0 mm 2 m/S 740 mmHg 71%
    05:00 +17°C° 0 mm 2 m/S 740 mmHg 69%
    06:00 +18°C° 0 mm 2 m/S 740 mmHg 67%
    07:00 +18°C° 0 mm 2 m/S 741 mmHg 66%
    08:00 +21°C° 0 mm 2 m/S 741 mmHg 58%
    09:00 +24°C° 0 mm 2 m/S 741 mmHg 51%
    10:00 +26°C° 0 mm 2 m/S 741 mmHg 44%
    11:00 +27°C° 0 mm 2 m/S 741 mmHg 42%
    12:00 +28°C° 0 mm 2 m/S 740 mmHg 40%
    13:00 +28°C° 0 mm 2 m/S 740 mmHg 39%
    14:00 +28°C° 0 mm 2 m/S 740 mmHg 40%
    15:00 +28°C° 0 mm 2 m/S 740 mmHg 42%
    16:00 +28°C° 0 mm 1 m/S 739 mmHg 43%
    17:00 +26°C° 0 mm 1 m/S 739 mmHg 50%
    18:00 +24°C° 0 mm 1 m/S 739 mmHg 56%
    19:00 +22°C° 0 mm 1 m/S 739 mmHg 62%
    20:00 +21°C° 0 mm 1 m/S 739 mmHg 65%
    21:00 +21°C° 0 mm 1 m/S 739 mmHg 68%
    22:00 +20°C° 0 mm 1 m/S 739 mmHg 70%
    23:00 +19°C° 0 mm 2 m/S 739 mmHg 72%

    übermorgen, 21 September, Freitag

    Zeit Temperatur Niederschläge Wind Luftdruck Luftfeuchtigkeit
    00:00 +18°C° 0 mm 2 m/S 739 mmHg 74%
    01:00 +18°C° 0 mm 2 m/S 739 mmHg 76%
    02:00 +18°C° 0 mm 2 m/S 739 mmHg 76%
    03:00 +17°C° 0 mm 2 m/S 738 mmHg 77%
    04:00 +17°C° 0 mm 2 m/S 738 mmHg 77%
    05:00 +18°C° 0 mm 2 m/S 738 mmHg 74%
    06:00 +18°C° 0 mm 2 m/S 738 mmHg 71%
    07:00 +19°C° 0 mm 2 m/S 738 mmHg 68%
    08:00 +21°C° 0 mm 2 m/S 738 mmHg 59%
    09:00 +25°C° 0 mm 3 m/S 738 mmHg 50%
    10:00 +27°C° 0 mm 3 m/S 737 mmHg 41%
    11:00 +28°C° 0 mm 3 m/S 737 mmHg 38%
    12:00 +29°C° 0 mm 4 m/S 737 mmHg 36%
    13:00 +29°C° 0 mm 4 m/S 736 mmHg 33%
    14:00 +29°C° 0 mm 4 m/S 736 mmHg 35%
    15:00 +28°C° 0 mm 4 m/S 735 mmHg 37%
    16:00 +28°C° 0 mm 4 m/S 734 mmHg 39%
    17:00 +26°C° 0 mm 4 m/S 734 mmHg 44%
    18:00 +24°C° 0 mm 3 m/S 734 mmHg 49%
    19:00 +21°C° 0 mm 3 m/S 734 mmHg 54%
    20:00 +20°C° 0 mm 3 m/S 733 mmHg 54%
    21:00 +20°C° 0 mm 4 m/S 733 mmHg 55%
    22:00 +19°C° 0 mm 4 m/S 733 mmHg 55%
    23:00 +19°C° 0 mm 4 m/S 732 mmHg 53%

    22 September, Samstag

    Zeit Temperatur Niederschläge Wind Luftdruck Luftfeuchtigkeit
    00:00 +19°C° 0 mm 3 m/S 732 mmHg 51%
    01:00 +19°C° 0 mm 3 m/S 732 mmHg 50%
    02:00 +17°C° 0.1 mm 5 m/S 733 mmHg 57%
    03:00 +16°C° 0.1 mm 6 m/S 734 mmHg 64%
    04:00 +15°C° 0.1 mm 7 m/S 735 mmHg 71%
    05:00 +13°C° 0.4 mm 6 m/S 736 mmHg 74%
    06:00 +12°C° 0.4 mm 5 m/S 737 mmHg 77%
    07:00 +11°C° 0.4 mm 3 m/S 738 mmHg 80%
    08:00 +11°C° 0.2 mm 4 m/S 738 mmHg 77%
    09:00 +12°C° 0.2 mm 4 m/S 739 mmHg 73%
    10:00 +12°C° 0.2 mm 4 m/S 739 mmHg 69%
    11:00 +12°C° 0 mm 4 m/S 739 mmHg 67%
    12:00 +12°C° 0 mm 4 m/S 739 mmHg 65%
    13:00 +12°C° 0 mm 4 m/S 739 mmHg 63%
    14:00 +13°C° 0 mm 4 m/S 739 mmHg 60%
    15:00 +13°C° 0 mm 4 m/S 739 mmHg 57%
    16:00 +14°C° 0 mm 4 m/S 739 mmHg 54%
    17:00 +13°C° 0 mm 4 m/S 739 mmHg 58%
    18:00 +12°C° 0 mm 3 m/S 739 mmHg 61%
    19:00 +11°C° 0 mm 3 m/S 740 mmHg 65%
    20:00 +10°C° 0 mm 3 m/S 740 mmHg 66%
    21:00 +10°C° 0 mm 3 m/S 740 mmHg 68%
    22:00 +9°C° 0 mm 3 m/S 740 mmHg 69%
    23:00 +9°C° 0 mm 3 m/S 740 mmHg 70%

    23 September, Sonntag

    Zeit Temperatur Niederschläge Wind Luftdruck Luftfeuchtigkeit
    00:00 +9°C° 0 mm 3 m/S 740 mmHg 71%
    01:00 +8°C° 0 mm 3 m/S 740 mmHg 71%
    02:00 +8°C° 0 mm 2 m/S 740 mmHg 72%
    03:00 +8°C° 0 mm 2 m/S 740 mmHg 73%
    04:00 +8°C° 0 mm 2 m/S 740 mmHg 75%
    05:00 +8°C° 0 mm 2 m/S 740 mmHg 72%
    06:00 +9°C° 0 mm 3 m/S 740 mmHg 70%
    07:00 +9°C° 0 mm 3 m/S 740 mmHg 68%
    08:00 +11°C° 0 mm 3 m/S 740 mmHg 60%
    09:00 +13°C° 0 mm 3 m/S 740 mmHg 53%
    10:00 +14°C° 0 mm 4 m/S 739 mmHg 45%
    11:00 +15°C° 0 mm 4 m/S 739 mmHg 42%
    12:00 +17°C° 0 mm 4 m/S 738 mmHg 38%
    13:00 +18°C° 0 mm 4 m/S 737 mmHg 35%
    14:00 +18°C° 0 mm 4 m/S 736 mmHg 36%
    15:00 +18°C° 0 mm 4 m/S 736 mmHg 38%
    16:00 +18°C° 0 mm 4 m/S 735 mmHg 39%
    17:00 +17°C° 0.1 mm 4 m/S 734 mmHg 45%
    18:00 +16°C° 0.1 mm 3 m/S 734 mmHg 51%
    19:00 +13°C° 0.1 mm 3 m/S 733 mmHg 57%
    20:00 +13°C° 0.1 mm 4 m/S 732 mmHg 58%
    21:00 +13°C° 0.1 mm 4 m/S 731 mmHg 59%
    22:00 +13°C° 0.1 mm 4 m/S 730 mmHg 60%
    23:00 +13°C° 0 mm 4 m/S 729 mmHg 59%

    24 September, Montag

    Zeit Temperatur Niederschläge Wind Luftdruck Luftfeuchtigkeit
    00:00 +12°C° 0 mm 4 m/S 728 mmHg 58%
    01:00 +12°C° 0 mm 4 m/S 727 mmHg 57%
    02:00 +12°C° 0.1 mm 5 m/S 726 mmHg 59%
    03:00 +13°C° 0.1 mm 5 m/S 726 mmHg 61%
    04:00 +13°C° 0.1 mm 6 m/S 726 mmHg 63%
    05:00 +13°C° 0 mm 6 m/S 726 mmHg 63%
    06:00 +12°C° 0 mm 7 m/S 726 mmHg 63%
    07:00 +12°C° 0 mm 7 m/S 726 mmHg 63%
    08:00 +11°C° 0.3 mm 7 m/S 726 mmHg 66%
    09:00 +11°C° 0.3 mm 7 m/S 726 mmHg 69%
    10:00 +10°C° 0.3 mm 7 m/S 726 mmHg 72%
    11:00 +11°C° 0.2 mm 7 m/S 726 mmHg 70%
    12:00 +11°C° 0.2 mm 7 m/S 726 mmHg 69%
    13:00 +12°C° 0.2 mm 7 m/S 726 mmHg 68%
    14:00 +12°C° 0.1 mm 7 m/S 726 mmHg 67%
    15:00 +12°C° 0.1 mm 7 m/S 726 mmHg 67%
    16:00 +12°C° 0.1 mm 8 m/S 726 mmHg 66%
    17:00 +12°C° 0 mm 7 m/S 727 mmHg 67%
    18:00 +11°C° 0 mm 6 m/S 727 mmHg 67%
    19:00 +10°C° 0 mm 6 m/S 727 mmHg 68%
    20:00 +10°C° 0 mm 6 m/S 727 mmHg 69%
    21:00 +9°C° 0 mm 6 m/S 727 mmHg 69%
    22:00 +9°C° 0 mm 6 m/S 728 mmHg 70%
    23:00 +9°C° 0.1 mm 6 m/S 728 mmHg 71%
    Mehr zeigen